[[{"header":{"parameterUnit":"m.s-1","parameterCategory":2,"la1":30.2992,"la2":30.254,"lo1":-89.0895,"lo2":-89.0443,"dy":0.0025,"dx":0.0025,"nx":19,"ny":19,"refTime":"2026-03-20T09:00:00:Z","depth":"0","parameterNumber":2,"parameterNumberName":"U-component_of_CURRENTS"},"data":[0,0,0,0.0545,0.0546,0.0593,0.0593,0.0568,0.0567,0,0,0,0,0,0,0,0,0,0,0,0.0539,0.0539,0.0545,0.0546,0.0593,0.0593,0.0568,0.0567,0,0,0,0,0,0,0,0,0,0,0,0.0539,0.0539,0.054,0.0546,0.0593,0.0593,0.0568,0.0555,0,0,0,0,0,0,0,0,0,0,0.052,0.0502,0.0539,0.054,0.0547,0.0593,0.0593,0.0555,0.0556,0.052,0,0.0536,0,0.0542,0.0563,0.0563,0,0,0,0.0551,0.0501,0.0535,0.054,0.0547,0.0593,0.0573,0.0556,0.0557,0.052,0.0536,0.0535,0.0542,0.0563,0.0562,0.0528,0.0528,0,0,0.0548,0.0523,0.0535,0.0536,0.0568,0.0572,0.0575,0.0557,0.0546,0.0536,0.0535,0.0541,0.0562,0.0562,0.0528,0.0528,0,0,0,0.0538,0.0521,0.0556,0.0536,0.0547,0.0573,0.0576,0.0547,0.0566,0.0535,0.0541,0.0562,0.0561,0.0528,0.0528,0.051,0,0,0,0.0536,0.0515,0.0555,0.0537,0.0548,0.0552,0.0566,0.0568,0.0566,0.0541,0.0562,0.0561,0.0528,0.0528,0.051,0.0497,0,0,0,0.0535,0.0513,0.0528,0.0536,0.0556,0.0554,0.0571,0.0568,0.0568,0.0563,0.056,0.0527,0.0528,0.051,0.0498,0.0506,0,0,0,0.0496,0.0553,0.0527,0.0566,0.0556,0.061,0.0571,0.0597,0.06,0.0562,0.0528,0.0528,0.051,0.0499,0.0506,0.046,0.0456,0,0,0.056,0.0559,0.0582,0.0561,0.0552,0.0603,0.0601,0.0585,0.0584,0.0527,0.0527,0.051,0.0498,0.0506,0.0471,0.0466,0,0,0,0.0596,0.0596,0.0595,0.0569,0.0599,0.0584,0.0601,0.0594,0.0563,0.0584,0.0519,0.0512,0.0517,0.0491,0.0487,0.0466,0.0529,0.0529,0.0529,0.0621,0.06,0.0586,0.0562,0.0579,0.0568,0.0572,0.056,0.0564,0.0552,0.0504,0.0506,0.0477,0.0474,0.0453,0.0515,0.0515,0.0515,0.0515,0.063,0.0603,0.0544,0.053,0.0494,0.0501,0.0509,0.051,0.0491,0.0497,0.0504,0.0481,0.0468,0.0448,0.0514,0.0514,0.0514,0.0514,0.0514,0.0593,0.0581,0.0562,0.0501,0.0459,0.0459,0.0434,0.0452,0.0472,0.047,0.0462,0.0462,0.0439,0.0485,0.0485,0.0485,0.0485,0.0485,0.0485,0.0571,0.0555,0.0514,0.0479,0.0444,0.0417,0.041,0.0409,0.0426,0.0439,0.0439,0.0433,0.0497,0.0492,0.0484,0.0484,0.0485,0.0485,0.0485,0.0502,0.0543,0.047,0.0437,0.0379,0.0348,0.0368,0.0352,0.0368,0.0369,0.037,0.0424,0.0428,0.0431,0.0425,0.04,0.04,0.04,0.04,0.0464,0.0479,0.0397,0.0354,0.0321,0.0312,0.0248,0.024,0.0281,0.0301,0.0325,0.0313,0.0318,0.0315,0.0321,0.0313,0.026,0.026,0.026,0.0377,0.038,0.0297,0.0303,0.0287,0.0259,0.0158,0.01,0.0201,0.0255,0.0306,0.0312,0.0297,0.0306,0.0304,0.0314,0.0303,0,0]},{"header":{"parameterUnit":"m.s-1","parameterCategory":2,"la1":30.2992,"la2":30.254,"lo1":-89.0895,"lo2":-89.0443,"dy":0.0025,"dx":0.0025,"nx":19,"ny":19,"refTime":"2026-03-20T09:00:00:Z","depth":"0","parameterNumber":3,"parameterNumberName":"V-component_of_CURRENTS"},"data":[0,0,0,-0.0411,-0.0411,-0.0386,-0.0385,-0.0315,-0.0314,0,0,0,0,0,0,0,0,0,0,0,-0.0417,-0.0417,-0.041,-0.0411,-0.0386,-0.0385,-0.0315,-0.0314,0,0,0,0,0,0,0,0,0,0,0,-0.0417,-0.0417,-0.0418,-0.0411,-0.0386,-0.0385,-0.0315,-0.0337,0,0,0,0,0,0,0,0,0,0,-0.0363,-0.0366,-0.0417,-0.0418,-0.0411,-0.0386,-0.0385,-0.0338,-0.0335,-0.0324,0,-0.034,0,-0.0339,-0.0311,-0.0311,0,0,0,-0.0383,-0.0369,-0.0387,-0.0418,-0.0411,-0.0386,-0.0389,-0.0336,-0.0334,-0.0321,-0.034,-0.0337,-0.0338,-0.0311,-0.0311,-0.0258,-0.0258,0,0,-0.0384,-0.0381,-0.0389,-0.0386,-0.0431,-0.039,-0.0389,-0.0335,-0.0328,-0.0339,-0.0336,-0.0337,-0.0311,-0.0311,-0.0259,-0.0258,0,0,0,-0.0407,-0.0382,-0.0401,-0.0388,-0.0395,-0.039,-0.0388,-0.0329,-0.0344,-0.0335,-0.0336,-0.0311,-0.031,-0.0259,-0.0258,-0.0259,0,0,0,-0.0406,-0.0398,-0.0402,-0.0395,-0.0397,-0.0363,-0.0384,-0.0347,-0.0341,-0.0337,-0.0311,-0.031,-0.0259,-0.0259,-0.0259,-0.0274,0,0,0,-0.0413,-0.0398,-0.0409,-0.0396,-0.0401,-0.0364,-0.0373,-0.0345,-0.0343,-0.0311,-0.031,-0.0259,-0.0259,-0.026,-0.0274,-0.0269,0,0,0,-0.039,-0.0406,-0.0409,-0.0416,-0.0402,-0.0391,-0.0373,-0.0347,-0.0322,-0.031,-0.0259,-0.0258,-0.026,-0.0274,-0.0269,-0.0228,-0.0224,0,0,-0.0398,-0.0406,-0.041,-0.0413,-0.0406,-0.0391,-0.0358,-0.0322,-0.0306,-0.027,-0.0269,-0.0259,-0.0274,-0.0269,-0.0195,-0.0192,0,0,0,-0.0403,-0.0406,-0.0404,-0.0401,-0.0397,-0.0371,-0.034,-0.0325,-0.0283,-0.0296,-0.0247,-0.0257,-0.0253,-0.0229,-0.0226,-0.0181,-0.0256,-0.0256,-0.0256,-0.0431,-0.0416,-0.0404,-0.0387,-0.0378,-0.0348,-0.0322,-0.0292,-0.0279,-0.0262,-0.0248,-0.0233,-0.0206,-0.0203,-0.0157,-0.0229,-0.0229,-0.0229,-0.0229,-0.0442,-0.0427,-0.04,-0.038,-0.036,-0.0336,-0.0303,-0.0286,-0.0249,-0.0244,-0.024,-0.0219,-0.0201,-0.0152,-0.0229,-0.0229,-0.0229,-0.0229,-0.0229,-0.0464,-0.0441,-0.0428,-0.0386,-0.0357,-0.0329,-0.0295,-0.027,-0.0258,-0.0243,-0.0209,-0.0209,-0.0175,-0.0236,-0.0236,-0.0236,-0.0236,-0.0236,-0.0236,-0.0481,-0.0456,-0.0423,-0.0386,-0.0358,-0.0328,-0.0292,-0.027,-0.0236,-0.0214,-0.0213,-0.0157,-0.0235,-0.0246,-0.0236,-0.0236,-0.0236,-0.0236,-0.0236,-0.0445,-0.0459,-0.0407,-0.0378,-0.0318,-0.0282,-0.0272,-0.022,-0.0207,-0.0182,-0.0113,-0.0191,-0.0189,-0.019,-0.0199,-0.0178,-0.0178,-0.0178,-0.0178,-0.0426,-0.0429,-0.0363,-0.0319,-0.0281,-0.0252,-0.0198,-0.0167,-0.0109,-0.0075,-0.0064,-0.0042,-0.0046,-0.0036,-0.004,-0.0046,0.0014,0.0014,0.0014,-0.0371,-0.0373,-0.0315,-0.0296,-0.0255,-0.0217,-0.0149,-0.0106,-0.004,0.0025,-0.001,-0.0018,0.0016,0.0006,0.0022,0.0012,0.0003,0,0]}],[{"header":{"parameterUnit":"m.s-1","parameterCategory":2,"la1":30.2992,"la2":30.254,"lo1":-89.0895,"lo2":-89.0443,"dy":0.0025,"dx":0.0025,"nx":19,"ny":19,"refTime":"2026-03-20T09:00:00:Z","depth":"2","parameterNumber":2,"parameterNumberName":"U-component_of_CURRENTS"},"data":[0,0,0,-0.1274,-0.1273,-0.1302,-0.1303,-0.1061,-0.1057,0,0,0,0,0,0,0,0,0,0,0,-0.1275,-0.1274,-0.1274,-0.1273,-0.1302,-0.1303,-0.1061,-0.1057,0,0,0,0,0,0,0,0,0,0,0,-0.1275,-0.1274,-0.1274,-0.1273,-0.1302,-0.1303,-0.1062,-0.1119,0,0,0,0,0,0,0,0,0,0,-0.1129,-0.1155,-0.1275,-0.1274,-0.1273,-0.1302,-0.1303,-0.1125,-0.1115,-0.0955,0,-0.0946,0,-0.0963,-0.1031,-0.103,0,0,0,-0.1312,-0.1164,-0.116,-0.1274,-0.1273,-0.1302,-0.13,-0.1122,-0.111,-0.094,-0.0943,-0.0936,-0.0959,-0.1028,-0.1026,-0.0703,-0.0703,0,0,-0.1311,-0.1285,-0.1169,-0.1153,-0.1253,-0.1299,-0.1301,-0.1119,-0.1092,-0.0943,-0.0931,-0.0955,-0.1026,-0.1023,-0.0704,-0.0703,0,0,0,-0.128,-0.1284,-0.1293,-0.1161,-0.117,-0.1299,-0.1301,-0.1102,-0.1102,-0.0929,-0.0952,-0.1024,-0.1019,-0.0704,-0.0704,-0.0673,0,0,0,-0.1281,-0.1263,-0.1292,-0.1278,-0.1175,-0.1172,-0.1288,-0.1117,-0.1097,-0.0953,-0.1023,-0.1015,-0.0705,-0.0704,-0.0675,-0.0622,0,0,0,-0.1278,-0.1263,-0.1259,-0.1276,-0.127,-0.1177,-0.1171,-0.1116,-0.1105,-0.1029,-0.1014,-0.0706,-0.0704,-0.0677,-0.0626,-0.0639,0,0,0,-0.1265,-0.1261,-0.1257,-0.1263,-0.1269,-0.1266,-0.1174,-0.1164,-0.1116,-0.1021,-0.0705,-0.0704,-0.0678,-0.0629,-0.0641,-0.0647,-0.0638,0,0,-0.1262,-0.1259,-0.1271,-0.1269,-0.118,-0.1266,-0.1175,-0.1078,-0.1022,-0.0752,-0.0747,-0.0674,-0.0627,-0.0639,-0.0564,-0.0557,0,0,0,-0.1275,-0.1215,-0.1233,-0.1147,-0.1178,-0.1121,-0.1073,-0.1025,-0.0862,-0.0975,-0.0654,-0.0623,-0.0633,-0.064,-0.0635,-0.0697,-0.0697,-0.0697,-0.0697,-0.1085,-0.1086,-0.1035,-0.1007,-0.0985,-0.0959,-0.0957,-0.084,-0.0799,-0.0731,-0.0585,-0.0546,-0.0551,-0.0548,-0.059,-0.059,-0.059,-0.059,-0.059,-0.0933,-0.0911,-0.0824,-0.078,-0.0724,-0.0643,-0.0619,-0.0635,-0.0535,-0.0516,-0.053,-0.0588,-0.054,-0.0587,-0.0587,-0.0588,-0.0588,-0.0588,-0.0589,-0.081,-0.0814,-0.0747,-0.0585,-0.0483,-0.0485,-0.0423,-0.0416,-0.0441,-0.046,-0.0491,-0.0492,-0.0539,-0.0474,-0.0474,-0.0473,-0.0473,-0.0473,-0.0473,-0.075,-0.0685,-0.0602,-0.0473,-0.0399,-0.0325,-0.0315,-0.0317,-0.0347,-0.0421,-0.0422,-0.0507,-0.051,-0.0532,-0.047,-0.0471,-0.0471,-0.0471,-0.0471,-0.0661,-0.0638,-0.0497,-0.0412,-0.0287,-0.0259,-0.0242,-0.0277,-0.0311,-0.0345,-0.0434,-0.0436,-0.0447,-0.0452,-0.0471,-0.0398,-0.0398,-0.0398,-0.0398,-0.0584,-0.0592,-0.0415,-0.0327,-0.023,-0.0229,-0.0309,-0.0482,-0.0538,-0.0628,-0.0619,-0.0668,-0.0664,-0.0692,-0.0691,-0.0718,-0.0709,-0.071,-0.0711,-0.0461,-0.0447,-0.035,-0.0326,-0.0227,-0.0231,-0.0375,-0.0658,-0.0792,-0.0734,-0.0786,-0.0397,-0.0443,-0.0447,-0.0471,-0.0477,-0.0512,0,0]},{"header":{"parameterUnit":"m.s-1","parameterCategory":2,"la1":30.2992,"la2":30.254,"lo1":-89.0895,"lo2":-89.0443,"dy":0.0025,"dx":0.0025,"nx":19,"ny":19,"refTime":"2026-03-20T09:00:00:Z","depth":"2","parameterNumber":3,"parameterNumberName":"V-component_of_CURRENTS"},"data":[0,0,0,0.0189,0.0187,0.0126,0.0126,0.0029,0.0027,0,0,0,0,0,0,0,0,0,0,0,0.0217,0.0217,0.0189,0.0187,0.0126,0.0126,0.0029,0.0027,0,0,0,0,0,0,0,0,0,0,0,0.0218,0.0217,0.0216,0.0187,0.0126,0.0126,0.0029,0.0085,0,0,0,0,0,0,0,0,0,0,0.0148,0.0178,0.0217,0.0216,0.0186,0.0126,0.0126,0.0088,0.0081,0.0044,0,0.0024,0,0.0009,0.0019,0.0018,0,0,0,0.0207,0.0184,0.0153,0.0216,0.0185,0.0126,0.0159,0.0084,0.0077,0.0035,0.0022,0.0018,0.0007,0.0018,0.0017,-0.0062,-0.0062,0,0,0.021,0.0221,0.0158,0.0148,0.0153,0.0161,0.0157,0.008,0.0073,0.0022,0.0016,0.0006,0.0017,0.0016,-0.0062,-0.0062,0,0,0,0.0207,0.0224,0.0196,0.0152,0.0134,0.0159,0.0154,0.0077,0.0063,0.0015,0.0005,0.0016,0.0014,-0.0063,-0.0062,-0.0022,0,0,0,0.021,0.0219,0.0197,0.0206,0.0135,0.0108,0.0153,0.007,0.006,0.0005,0.0016,0.0013,-0.0063,-0.0062,-0.0024,-0.0063,0,0,0,0.0223,0.0221,0.0207,0.0206,0.0168,0.0109,0.0093,0.0068,0.0052,0.0018,0.0013,-0.0063,-0.0062,-0.0025,-0.0063,-0.0049,0,0,0,0.0248,0.023,0.0207,0.0201,0.0168,0.0151,0.0094,0.0085,0.0065,0.0015,-0.0063,-0.0062,-0.0025,-0.0064,-0.005,-0.0026,-0.0022,0,0,0.0243,0.0229,0.0233,0.0211,0.0165,0.0162,0.0145,0.0094,0.0052,-0.0036,-0.0038,-0.0023,-0.0063,-0.0049,-0.0009,-0.0006,0,0,0,0.0246,0.0222,0.0225,0.018,0.0171,0.0138,0.0108,0.0089,0.0032,0.0033,-0.0029,-0.0057,-0.0048,-0.0034,-0.0032,-0.0061,-0.0061,-0.0061,-0.0061,0.0153,0.0163,0.0143,0.0138,0.0129,0.0112,0.0114,0.0065,0.0048,0.0031,-0.0025,0.0001,0.0018,0.002,0.0003,0.0003,0.0003,0.0003,0.0003,0.0087,0.0082,0.0064,0.0057,0.0031,0.0012,0.0015,0.0027,0.0011,-0.0013,-0.0003,0.0004,0.0025,0.0006,0.0006,0.0005,0.0005,0.0005,0.0004,0.0033,0.0039,0.0017,-0.0036,-0.0069,-0.0053,-0.0057,-0.0034,-0.0023,0.0011,0.0023,0.0023,0.0005,0.0028,0.0028,0.0028,0.0028,0.0028,0.0028,-0.0009,-0.0029,-0.0045,-0.0086,-0.0112,-0.0126,-0.0102,-0.0082,-0.0032,0.002,0.0022,0.0008,0.0007,0.0005,0.0026,0.0027,0.0027,0.0027,0.0027,-0.002,-0.0054,-0.0083,-0.0107,-0.0131,-0.0137,-0.0123,-0.0068,-0.0027,0.0004,0.0045,0.0045,0.0022,0.002,0.0017,0.004,0.004,0.004,0.004,-0.0059,-0.0055,-0.0108,-0.0116,-0.0131,-0.0128,-0.0103,-0.0027,0.0051,0.0115,0.0112,0.0136,0.0134,0.0117,0.0113,0.0112,0.016,0.016,0.016,-0.01,-0.0109,-0.0127,-0.0111,-0.0118,-0.0114,-0.0111,-0.0008,0.0162,0.0166,0.0142,0.0046,0.0074,0.0073,0.0041,0.0037,0.0032,0,0]}],[{"header":{"parameterUnit":"m.s-1","parameterCategory":2,"la1":30.2992,"la2":30.254,"lo1":-89.0895,"lo2":-89.0443,"dy":0.0025,"dx":0.0025,"nx":19,"ny":19,"refTime":"2026-03-20T09:00:00:Z","depth":"4","parameterNumber":2,"parameterNumberName":"U-component_of_CURRENTS"},"data":[0,0,0,-0.1087,-0.1089,-0.1199,-0.12,-0.1347,-0.1348,0,0,0,0,0,0,0,0,0,0,0,-0.1082,-0.1083,-0.1087,-0.1089,-0.1199,-0.12,-0.1347,-0.1348,0,0,0,0,0,0,0,0,0,0,0,-0.1081,-0.1082,-0.1084,-0.1089,-0.1199,-0.12,-0.1346,-0.1267,0,0,0,0,0,0,0,0,0,0,-0.1162,-0.1129,-0.1082,-0.1084,-0.1089,-0.1199,-0.12,-0.1264,-0.1272,-0.129,0,-0.132,0,-0.1313,-0.1355,-0.1356,0,0,0,-0.1113,-0.1122,-0.116,-0.1084,-0.109,-0.1199,-0.1156,-0.1269,-0.1278,-0.1302,-0.1322,-0.1326,-0.1315,-0.1356,-0.1357,-0.1446,-0.1446,0,0,-0.1107,-0.1092,-0.1154,-0.1167,-0.1135,-0.1152,-0.1159,-0.1275,-0.1286,-0.1322,-0.1329,-0.1318,-0.1357,-0.1358,-0.1446,-0.1446,0,0,0,-0.1073,-0.1087,-0.1124,-0.1162,-0.1168,-0.1155,-0.1163,-0.1282,-0.1297,-0.1331,-0.1319,-0.1358,-0.1359,-0.1446,-0.1446,-0.1597,0,0,0,-0.107,-0.1066,-0.1121,-0.1112,-0.1166,-0.1218,-0.1168,-0.1291,-0.1302,-0.1319,-0.1358,-0.136,-0.1445,-0.1446,-0.1593,-0.1597,0,0,0,-0.1074,-0.1064,-0.1085,-0.1111,-0.1145,-0.1216,-0.1239,-0.1293,-0.1293,-0.1356,-0.1361,-0.1445,-0.1446,-0.1589,-0.1592,-0.1599,0,0,0,-0.1044,-0.1059,-0.1086,-0.1109,-0.1144,-0.1201,-0.1238,-0.1293,-0.1346,-0.1358,-0.1446,-0.1446,-0.1588,-0.1588,-0.1596,-0.1225,0,0,0,-0.1037,-0.1058,-0.1073,-0.1098,-0.1137,-0.1186,-0.1267,-0.1354,-0.1355,-0.1412,-0.1415,-0.1594,-0.1591,-0.1598,-0.1243,0,0,0,0,-0.1054,-0.1064,-0.1083,-0.1118,-0.117,-0.1246,-0.1322,-0.1382,-0.1488,-0.1382,-0.1557,-0.1547,-0.1549,-0.1322,-0.1447,-0.1447,-0.1447,-0.1447,-0.1447,-0.1022,-0.1056,-0.1083,-0.1138,-0.1183,-0.1302,-0.1368,-0.1453,-0.1519,-0.1584,-0.1648,-0.1713,-0.148,-0.1648,-0.1649,-0.165,-0.165,-0.1651,-0.1651,-0.1003,-0.1013,-0.1079,-0.1118,-0.1218,-0.1304,-0.1467,-0.1555,-0.1696,-0.173,-0.1727,-0.1467,-0.1665,-0.1662,-0.166,-0.1659,-0.1658,-0.1657,-0.1656,-0.0958,-0.0966,-0.1022,-0.1082,-0.1203,-0.1356,-0.1413,-0.1655,-0.1767,-0.1811,-0.1578,-0.1768,-0.178,-0.1883,-0.1883,-0.1883,-0.1883,-0.1883,-0.1883,-0.0888,-0.0939,-0.095,-0.1049,-0.1105,-0.1224,-0.1472,-0.1455,-0.168,-0.1639,-0.1893,-0.1788,-0.178,-0.1788,-0.1885,-0.1884,-0.1884,-0.1884,-0.1884,-0.0807,-0.0832,-0.0831,-0.0871,-0.095,-0.1028,-0.1252,-0.1242,-0.1257,-0.1204,-0.1495,-0.1514,-0.1399,-0.14,-0.139,-0.1373,-0.1368,-0.1364,0,-0.0736,-0.0748,-0.0737,-0.0739,-0.0732,-0.0901,-0.079,-0.0808,-0.1029,-0.1109,-0.1251,-0.1589,-0.16,-0.1472,-0.1465,-0.1452,0,0,0,-0.0679,-0.0682,-0.0645,-0.0642,-0.0661,-0.0652,-0.0757,-0.0753,-0.1063,-0.0815,-0.1251,-0.1281,-0.1315,-0.1889,-0.1755,-0.1746,-0.175,0,0]},{"header":{"parameterUnit":"m.s-1","parameterCategory":2,"la1":30.2992,"la2":30.254,"lo1":-89.0895,"lo2":-89.0443,"dy":0.0025,"dx":0.0025,"nx":19,"ny":19,"refTime":"2026-03-20T09:00:00:Z","depth":"4","parameterNumber":3,"parameterNumberName":"V-component_of_CURRENTS"},"data":[0,0,0,-0.0009,-0.001,-0.0043,-0.0043,-0.0063,-0.0064,0,0,0,0,0,0,0,0,0,0,0,0.0022,0.0021,-0.0009,-0.001,-0.0043,-0.0043,-0.0063,-0.0064,0,0,0,0,0,0,0,0,0,0,0,0.0022,0.0022,0.0021,-0.0011,-0.0043,-0.0043,-0.0063,-0.0039,0,0,0,0,0,0,0,0,0,0,-0.0008,-0.0001,0.0022,0.0021,-0.0011,-0.0043,-0.0042,-0.0038,-0.0041,-0.0049,0,-0.0055,0,-0.0078,-0.0066,-0.0067,0,0,0,0.001,0.0001,-0.0004,0.0021,-0.0012,-0.0043,-0.0022,-0.0039,-0.0042,-0.0053,-0.0055,-0.0057,-0.0078,-0.0067,-0.0067,-0.0178,-0.0178,0,0,0.0011,0.0012,-0.0002,-0.0006,-0.0021,-0.0022,-0.0024,-0.0041,-0.0047,-0.0055,-0.0058,-0.0078,-0.0067,-0.0067,-0.0177,-0.0178,0,0,0,0.0003,0.0013,0.0009,-0.0004,-0.0022,-0.0023,-0.0025,-0.0045,-0.0046,-0.0058,-0.0079,-0.0067,-0.0068,-0.0176,-0.0177,-0.0158,0,0,0,0.0005,0.0007,0.001,0.001,-0.0022,-0.0042,-0.0029,-0.0044,-0.0048,-0.0078,-0.0067,-0.0068,-0.0175,-0.0176,-0.0156,-0.021,0,0,0,0.0023,0.0008,0.0006,0.001,-0.0015,-0.0042,-0.0043,-0.0045,-0.0061,-0.0067,-0.0068,-0.0174,-0.0176,-0.0155,-0.0206,-0.0158,0,0,0,0.0025,-0.0013,0.0006,-0.0056,-0.0015,-0.0088,-0.0043,-0.0091,-0.0104,-0.0067,-0.0175,-0.0177,-0.0155,-0.0203,-0.0157,-0.0144,0,0,0,-0.0028,-0.0019,-0.0061,-0.0046,-0.0126,-0.0082,-0.0155,-0.0145,-0.0138,-0.0161,-0.0164,-0.0157,-0.0205,-0.0157,-0.0272,0,0,0,0,-0.0083,-0.0102,-0.0125,-0.0168,-0.0202,-0.0228,-0.0213,-0.0194,-0.0191,-0.0159,-0.0207,-0.0241,-0.0208,-0.0201,-0.0187,-0.0187,-0.0187,-0.0187,-0.0186,-0.0123,-0.0158,-0.0228,-0.0266,-0.0306,-0.0329,-0.0343,-0.0323,-0.0258,-0.0258,-0.0258,-0.0269,-0.0266,-0.0265,-0.0265,-0.0265,-0.0265,-0.0265,-0.0265,-0.0195,-0.0247,-0.0286,-0.0362,-0.0397,-0.0446,-0.0449,-0.0402,-0.0348,-0.0309,-0.0274,-0.0228,-0.0264,-0.0265,-0.0265,-0.0265,-0.0265,-0.0265,-0.0265,-0.0218,-0.0253,-0.0295,-0.0396,-0.0475,-0.0503,-0.0535,-0.0494,-0.0388,-0.0367,-0.0269,-0.0269,-0.0228,-0.0268,-0.0268,-0.0268,-0.0268,-0.0268,-0.0268,-0.0226,-0.0274,-0.0338,-0.0432,-0.0495,-0.0543,-0.0559,-0.0527,-0.0418,-0.0311,-0.032,-0.027,-0.027,-0.0231,-0.0268,-0.0268,-0.0268,-0.0268,-0.0268,-0.0271,-0.0279,-0.0363,-0.0425,-0.0544,-0.0568,-0.0585,-0.0497,-0.0412,-0.0323,-0.0269,-0.0269,-0.0274,-0.0274,-0.0235,-0.0274,-0.0274,-0.0274,0,-0.0284,-0.0301,-0.0392,-0.0476,-0.0543,-0.058,-0.0494,-0.0447,-0.0353,-0.0322,-0.0378,-0.032,-0.0318,-0.0329,-0.0328,-0.0286,0,0,0,-0.0307,-0.0318,-0.038,-0.0461,-0.0549,-0.0484,-0.0462,-0.0422,-0.0359,-0.0338,-0.0273,-0.0273,-0.0352,-0.027,-0.0277,-0.0277,-0.0215,0,0]}]]